Location: Delettes
(50.6178°N, 2.2123°E)
Time: 08:35:22
(UTC+00:00)

NOSS 3-2 (C) - Pass Details

Date: 27 February 2020
Orbit: 813 x 1399 km, 63.4° (Epoch: 06 March)

Event Time Altitude Azimuth Distance (km) Brightness Sun altitude
Rises 20:50:34 0° 315° (NW) 3,951 7.7 -31.9°
Reaches altitude 10° 20:53:09 10° 312° (NW) 3,069 6.9 -32.3°
Maximum altitude 21:00:28 60° 235° (SW) 1,432 4.3 -33.3°
Enters shadow 21:01:19 57° 209° (SSW) 1,479 4.2 -33.4°
